COSMOS 252 DEB *, 18597

Orbit data source: Space-Track

COSMOS 252 DEB *, 18597 is space debris in LEO originally from a launch on Fri, 01 Nov 1968 UTC launched from the Tyuratam Missile And Space Complex (TTMTR). Debris objects in space refer to the collection of defunct objects orbiting the Earth. Examples of debris include non-operational satellites, rocket bodies, and fragments generated from explosions, collisions, or faulty payload assembly.

Loading next visibility...
Identifier
18597, 1968-097EQ
Orbit
LEO
Country
Flag of CISCIS
Related business
Manufacturer
Unknown
Mission
Spacecraft
Bus & Motor
Unknown
Mass
Unknown
Launch date (UTC)
1968-11-01 (58 years ago)
Launch vehicle
Unknown
Launch site
Tyuratam Missile And Space Complex (TTMTR)
Object type
Payload
Rocket body
Debris
Shape & HBR
Unknown shape, 0.1 m
Radar Cross Section
Medium (>0.1 m² and <1 m²)

Expand to show TLE details & history
Last TLE update: 22 hours ago

TLE from 22 hours ago
0 COSMOS 252 DEB *
1 18597U 68097EQ  26236.10814215  .00001157  00000-0  16039-2 0  9996
2 18597  62.2513 125.6989 0781087  64.7693 303.2160 12.75788853592776
Epoch: 2026-08-24T02:35Z
TLE epoch observation values (Epoch: 2026-08-24T02:35:43.481Z)
Latitude
-0.00012°
Longitude
114.37308°
Altitude
1,064.172 km
Speed
7.459 km/s
True Right ascension
08h 22m 47s
True Declination
0° 00' 00"
Sunlit
Object was in daylight at epoch
Visualization orbit readout
Latitude
Unknown
Longitude
Unknown
Altitude
Unknown
Speed
Unknown
Apparent Right ascension
Unknown
Apparent Declination
Unknown
Sunlit
N/A
Visualization observer readout
Local Sidereal Time
15:56:25
Azimuth
Unknown
Elevation
Unknown
Doppler factor
Unknown
Orbital elements
Apogee altitude
1,961.665 km
Perigee altitude
753.232 km
Semi-major axis
7,735.585 km
Eccentricity
0.07811
Inclination
62.2513°
RAAN
125.6989°
Arg. of periapsis
64.7693°
True anomaly
295.33084°
Mean anomaly
303.216°
Eccentric anomaly
299.31376°
Mean motion
3.19009 °/min
Orbital period
112.85 mins
BSTAR
0.0016039

Documentation

Showing up to 5 results
|